Showing default

COSMOS 1929, 18942

Orbit data source: Space-Track

COSMOS 1929, 18942 is a payload satellite owned by UNKS (CIS) in LEO that was launched on Fri, 11 Mar 1988 UTC via a KOSMOS 11K65M launch vehicle from the Plesetsk Missile And Space Complex (PKMTR). Payload-class satellites include a variety of spacecraft equipped with specific instruments for various scientific and technological missions. These include communications satellites like Starlink; space stations such as the ISS; scientific satellites like the Hubble; Earth observation satellites from companies like Planet Labs, Umbra, and HawkEye 360; GPS; miniature CubeSats for education and research; and military/defense satellites.

Loading next visibility...
Identifier
18942, 1988-016F
Orbit
LEO
Country
Flag of CISCIS
Related business
Manufacturer
NPO PM
Mission
Defense Communications
Bus & Motor
STRELA-1 11F625, Unknown motor
Mass
60 kg wet, 60 kg dry
Launch date (UTC)
1988-03-11 (38 years ago)
Launch vehicle
KOSMOS 11K65M
Launch site
Plesetsk Missile And Space Complex (PKMTR)
Object type
Payload
Rocket body
Debris
Shape & HBR
Sphere, 0.4 m
Radar Cross Section
0.588 m², Medium (>0.1 m² and < 1m²)

Expand to show TLE details & history
Last TLE update: 18 hours ago

TLE from 18 hours ago
0 COSMOS 1929
1 18942U 88016F   25348.84334023 -.00000005  00000-0  68361-4 0  9990
2 18942  74.0068  23.8578 0019259  79.4586  93.7808 12.54804775729768
Epoch: 2025-12-14T20:14Z
TLE epoch observation values (Epoch: 2025-12-14T20:14:24.595Z)
Latitude
6.22015°
Longitude
174.72356°
Altitude
1,447.28 km
Speed
7.138 km/s
True Right ascension
13h 28m 18s
True Declination
6° 11' 11"
Sunlit
Object was in daylight at epoch
Visualization orbit readout
Latitude
Unknown
Longitude
Unknown
Altitude
Unknown
Speed
Unknown
Apparent Right ascension
Unknown
Apparent Declination
Unknown
Sunlit
N/A
Visualization observer readout
Local Sidereal Time
13:18:47
Azimuth
Unknown
Elevation
Unknown
Doppler factor
Unknown
Orbital elements
Apogee altitude
1,457.355 km
Perigee altitude
1,427.232 km
Semi-major axis
7,820.43 km
Eccentricity
0.00193
Inclination
74.0068°
RAAN
23.8578°
Arg. of periapsis
79.4586°
True anomaly
94.00098°
Mean anomaly
93.7808°
Eccentric anomaly
93.89089°
Mean motion
3.13832 °/min
Orbital period
114.71 mins
BSTAR
0.000068361
Loading maneuver chart data...
Computing Atmospheric mass density...
Loading historical data...
Loading historical data...
Loading historical data...
Loading historical data...
Loading historical data...
Loading historical data...
Loading historical data...

Documentation

Showing up to 5 results
|